Time,TemperatureF,DewpointF,PressureIn,WindDirection,WindDirectionDegrees,WindSpeedMPH,WindSpeedGustMPH,Humidity,HourlyPrecipIn,Conditions,Clouds,dailyrainin,SoftwareType,DateUTC
2013-12-02 00:01:00,57.6,51.1,30.01,SSE,163,0.0,0.0,79,0.00,,,0.00,WeatherCatV1.02B3,2013-12-02 06:01:00,
2013-12-02 00:06:00,57.5,51.0,30.01,SSE,161,0.0,0.0,79,0.00,,,0.00,WeatherCatV1.02B3,2013-12-02 06:06:00,
2013-12-02 00:11:00,57.5,51.0,30.01,South,184,0.0,1.0,79,0.00,,,0.00,WeatherCatV1.02B3,2013-12-02 06:11:00,
2013-12-02 00:16:00,57.4,50.9,30.01,South,184,0.0,0.0,79,0.00,,,0.00,WeatherCatV1.02B3,2013-12-02 06:16:00,
2013-12-02 00:21:00,57.3,51.2,30.01,South,183,0.0,0.0,80,0.00,,,0.00,WeatherCatV1.02B3,2013-12-02 06:21:00,
2013-12-02 00:26:00,57.3,51.2,30.00,South,184,0.0,0.0,80,0.00,,,0.00,WeatherCatV1.02B3,2013-12-02 06:26:00,
2013-12-02 00:31:00,57.1,51.0,30.00,South,184,0.0,0.0,80,0.00,,,0.00,WeatherCatV1.02B3,2013-12-02 06:31:00,
2013-12-02 00:36:00,57.1,51.0,29.99,South,184,0.0,1.0,80,0.00,,,0.00,WeatherCatV1.02B3,2013-12-02 06:36:00,
2013-12-02 00:41:00,57.0,51.2,30.00,South,183,0.0,0.0,81,0.00,,,0.00,WeatherCatV1.02B3,2013-12-02 06:41:00,
2013-12-02 00:46:00,56.9,51.1,29.99,South,183,0.0,1.0,81,0.00,,,0.00,WeatherCatV1.02B3,2013-12-02 06:46:00,
2013-12-02 00:51:00,56.9,51.1,29.99,South,183,0.0,1.0,81,0.00,,,0.00,WeatherCatV1.02B3,2013-12-02 06:51:00,
2013-12-02 00:56:00,56.8,51.0,29.99,South,183,0.0,1.0,81,0.00,,,0.00,WeatherCatV1.02B3,2013-12-02 06:56:00,
2013-12-02 01:01:00,56.8,51.0,29.99,South,183,0.0,0.0,81,0.00,,,0.00,WeatherCatV1.02B3,2013-12-02 07:01:00,
2013-12-02 01:06:00,56.7,50.9,29.99,South,177,0.0,2.0,81,0.00,,,0.00,WeatherCatV1.02B3,2013-12-02 07:06:00,
2013-12-02 01:11:00,56.7,50.9,29.99,South,177,0.0,4.0,81,0.00,,,0.00,WeatherCatV1.02B3,2013-12-02 07:11:00,
2013-12-02 01:16:00,56.7,50.9,29.99,South,177,0.0,0.0,81,0.00,,,0.00,WeatherCatV1.02B3,2013-12-02 07:16:00,
2013-12-02 01:21:00,56.7,50.9,29.98,South,177,0.0,1.0,81,0.00,,,0.00,WeatherCatV1.02B3,2013-12-02 07:21:00,
2013-12-02 01:26:00,56.8,51.0,29.98,South,177,0.0,1.0,81,0.00,,,0.00,WeatherCatV1.02B3,2013-12-02 07:26:00,
2013-12-02 01:31:00,56.8,51.0,29.98,South,178,0.0,1.0,81,0.00,,,0.00,WeatherCatV1.02B3,2013-12-02 07:31:00,
2013-12-02 01:36:00,56.8,51.0,29.98,South,178,0.0,1.0,81,0.00,,,0.00,WeatherCatV1.02B3,2013-12-02 07:36:00,
2013-12-02 01:41:00,56.8,51.0,29.98,South,178,0.0,1.0,81,0.00,,,0.00,WeatherCatV1.02B3,2013-12-02 07:41:00,
2013-12-02 01:46:00,56.9,51.1,29.98,South,178,0.0,0.0,81,0.00,,,0.00,WeatherCatV1.02B3,2013-12-02 07:46:00,
2013-12-02 01:51:00,56.9,51.1,29.98,South,178,0.0,0.0,81,0.00,,,0.00,WeatherCatV1.02B3,2013-12-02 07:51:00,
2013-12-02 01:56:00,56.9,51.1,29.98,South,176,0.0,5.0,81,0.00,,,0.00,WeatherCatV1.02B3,2013-12-02 07:56:00,
2013-12-02 02:01:00,57.0,51.2,29.97,SW,215,0.0,5.0,81,0.00,,,0.00,WeatherCatV1.02B3,2013-12-02 08:01:00,
2013-12-02 02:06:00,57.1,51.0,29.96,SSW,200,0.0,2.0,80,0.00,,,0.00,WeatherCatV1.02B3,2013-12-02 08:06:00,
2013-12-02 02:11:00,56.9,50.8,29.96,SSE,166,2.0,2.0,80,0.00,,,0.00,WeatherCatV1.02B3,2013-12-02 08:11:00,
2013-12-02 02:16:00,56.9,50.8,29.96,SSE,166,0.0,1.0,80,0.00,,,0.00,WeatherCatV1.02B3,2013-12-02 08:16:00,
2013-12-02 02:21:00,56.8,51.0,29.96,SSE,165,0.0,4.0,81,0.00,,,0.00,WeatherCatV1.02B3,2013-12-02 08:21:00,
2013-12-02 02:26:00,56.7,50.9,29.96,SSE,165,0.0,1.0,81,0.00,,,0.00,WeatherCatV1.02B3,2013-12-02 08:26:00,
2013-12-02 02:31:00,56.6,50.8,29.96,SSE,165,0.0,0.0,81,0.00,,,0.00,WeatherCatV1.02B3,2013-12-02 08:31:00,
2013-12-02 02:36:00,56.4,50.6,29.96,SSE,165,0.0,0.0,81,0.00,,,0.00,WeatherCatV1.02B3,2013-12-02 08:36:00,
2013-12-02 02:41:00,56.3,50.5,29.96,SSE,165,0.0,0.0,81,0.00,,,0.00,WeatherCatV1.02B3,2013-12-02 08:41:00,
2013-12-02 02:46:00,56.2,50.4,29.96,SSE,165,1.0,1.0,81,0.00,,,0.00,WeatherCatV1.02B3,2013-12-02 08:46:00,
2013-12-02 02:51:00,56.2,50.4,29.96,SSE,165,0.0,0.0,81,0.00,,,0.00,WeatherCatV1.02B3,2013-12-02 08:51:00,
2013-12-02 02:56:00,56.1,50.7,29.96,SSE,165,0.0,0.0,82,0.00,,,0.00,WeatherCatV1.02B3,2013-12-02 08:56:00,
2013-12-02 03:01:00,56.1,50.7,29.96,SSE,165,0.0,0.0,82,0.00,,,0.00,WeatherCatV1.02B3,2013-12-02 09:01:00,
2013-12-02 03:06:00,56.1,50.3,29.95,SSE,164,0.0,1.0,81,0.00,,,0.00,WeatherCatV1.02B3,2013-12-02 09:06:00,
2013-12-02 03:11:00,56.1,50.3,29.94,SSE,164,0.0,1.0,81,0.00,,,0.00,WeatherCatV1.02B3,2013-12-02 09:11:00,
2013-12-02 03:16:00,56.1,50.3,29.94,SSE,164,0.0,1.0,81,0.00,,,0.00,WeatherCatV1.02B3,2013-12-02 09:16:00,
2013-12-02 03:21:00,56.1,50.3,29.94,SSE,164,0.0,0.0,81,0.00,,,0.00,WeatherCatV1.02B3,2013-12-02 09:21:00,
2013-12-02 03:26:00,55.9,50.2,29.94,SSE,164,0.0,0.0,81,0.00,,,0.00,WeatherCatV1.02B3,2013-12-02 09:26:00,
2013-12-02 03:31:00,55.7,50.0,29.94,SSE,164,0.0,0.0,81,0.00,,,0.00,WeatherCatV1.02B3,2013-12-02 09:31:00,
2013-12-02 03:36:00,55.5,50.1,29.94,SSE,163,0.0,4.0,82,0.00,,,0.00,WeatherCatV1.02B3,2013-12-02 09:36:00,
2013-12-02 03:41:00,55.4,50.0,29.94,SSE,163,0.0,0.0,82,0.00,,,0.00,WeatherCatV1.02B3,2013-12-02 09:41:00,
2013-12-02 03:46:00,55.4,50.3,29.94,SSE,163,1.0,1.0,83,0.00,,,0.00,WeatherCatV1.02B3,2013-12-02 09:46:00,
2013-12-02 03:51:00,55.4,50.3,29.94,SSE,163,0.0,0.0,83,0.00,,,0.00,WeatherCatV1.02B3,2013-12-02 09:51:00,
2013-12-02 03:56:00,55.5,50.1,29.94,SSE,166,0.0,0.0,82,0.00,,,0.00,WeatherCatV1.02B3,2013-12-02 09:56:00,
2013-12-02 04:01:00,55.6,50.2,29.94,SSE,157,0.0,0.0,82,0.00,,,0.00,WeatherCatV1.02B3,2013-12-02 10:01:00,
2013-12-02 04:06:00,55.7,50.3,29.93,SSE,157,5.0,5.0,82,0.00,,,0.00,WeatherCatV1.02B3,2013-12-02 10:06:00,
2013-12-02 04:11:00,55.8,50.4,29.93,SSE,156,0.0,0.0,82,0.00,,,0.00,WeatherCatV1.02B3,2013-12-02 10:11:00,
2013-12-02 04:16:00,55.8,50.4,29.93,SSE,162,0.0,4.0,82,0.00,,,0.00,WeatherCatV1.02B3,2013-12-02 10:16:00,
2013-12-02 04:21:00,55.8,50.4,29.93,South,169,0.0,4.0,82,0.00,,,0.00,WeatherCatV1.02B3,2013-12-02 10:21:00,
2013-12-02 04:26:00,55.8,50.4,29.93,SSE,159,0.0,5.0,82,0.00,,,0.00,WeatherCatV1.02B3,2013-12-02 10:26:00,
2013-12-02 04:31:00,55.8,50.4,29.93,SSE,149,0.0,0.0,82,0.00,,,0.00,WeatherCatV1.02B3,2013-12-02 10:31:00,
2013-12-02 04:37:00,55.8,50.4,29.93,SSE,149,0.0,1.0,82,0.00,,,0.00,WeatherCatV1.02B3,2013-12-02 10:37:00,
2013-12-02 04:42:00,55.7,50.3,29.93,SSE,164,0.0,4.0,82,0.00,,,0.00,WeatherCatV1.02B3,2013-12-02 10:42:00,
2013-12-02 04:47:00,55.7,50.3,29.93,SSE,164,0.0,0.0,82,0.00,,,0.00,WeatherCatV1.02B3,2013-12-02 10:47:00,
2013-12-02 04:52:00,55.7,50.6,29.92,SSE,165,0.0,1.0,83,0.00,,,0.00,WeatherCatV1.02B3,2013-12-02 10:52:00,
2013-12-02 04:57:00,55.6,50.2,29.92,SSE,165,1.0,4.0,82,0.00,,,0.00,WeatherCatV1.02B3,2013-12-02 10:57:00,
2013-12-02 05:02:00,55.5,50.1,29.92,SSE,165,0.0,1.0,82,0.00,,,0.00,WeatherCatV1.02B3,2013-12-02 11:02:00,
2013-12-02 05:07:00,55.3,50.2,29.92,SSE,165,0.0,0.0,83,0.00,,,0.00,WeatherCatV1.02B3,2013-12-02 11:07:00,
2013-12-02 05:12:00,55.2,50.1,29.92,SSE,165,0.0,2.0,83,0.00,,,0.00,WeatherCatV1.02B3,2013-12-02 11:12:00,
2013-12-02 05:17:00,55.1,50.0,29.92,South,184,1.0,1.0,83,0.00,,,0.00,WeatherCatV1.02B3,2013-12-02 11:17:00,
2013-12-02 05:22:00,55.0,49.9,29.92,South,188,1.0,2.0,83,0.00,,,0.00,WeatherCatV1.02B3,2013-12-02 11:22:00,
2013-12-02 05:27:00,55.0,50.3,29.92,South,187,0.0,3.0,84,0.00,,,0.00,WeatherCatV1.02B3,2013-12-02 11:27:00,
2013-12-02 05:32:00,54.9,50.2,29.92,South,187,0.0,0.0,84,0.00,,,0.00,WeatherCatV1.02B3,2013-12-02 11:32:00,
2013-12-02 05:37:00,54.9,50.2,29.92,South,187,0.0,1.0,84,0.00,,,0.00,WeatherCatV1.02B3,2013-12-02 11:37:00,
2013-12-02 05:42:00,54.9,50.2,29.92,South,187,0.0,0.0,84,0.00,,,0.00,WeatherCatV1.02B3,2013-12-02 11:42:00,
2013-12-02 05:47:00,54.9,50.2,29.92,South,178,0.0,2.0,84,0.00,,,0.00,WeatherCatV1.02B3,2013-12-02 11:47:00,
2013-12-02 05:52:00,54.9,50.2,29.91,South,178,1.0,1.0,84,0.00,,,0.00,WeatherCatV1.02B3,2013-12-02 11:52:00,
2013-12-02 05:57:00,54.9,50.2,29.91,South,178,0.0,0.0,84,0.00,,,0.00,WeatherCatV1.02B3,2013-12-02 11:57:00,
2013-12-02 06:02:00,54.9,50.2,29.91,South,181,1.0,4.0,84,0.00,,,0.00,WeatherCatV1.02B3,2013-12-02 12:02:00,
2013-12-02 06:07:00,54.9,50.2,29.91,South,173,0.0,4.0,84,0.00,,,0.00,WeatherCatV1.02B3,2013-12-02 12:07:00,
2013-12-02 06:12:00,54.9,50.2,29.91,SE,129,0.0,4.0,84,0.00,,,0.00,WeatherCatV1.02B3,2013-12-02 12:12:00,
2013-12-02 06:17:00,54.8,50.1,29.91,SE,140,0.0,4.0,84,0.00,,,0.00,WeatherCatV1.02B3,2013-12-02 12:17:00,
2013-12-02 06:22:00,54.7,50.0,29.90,SSW,202,1.0,4.0,84,0.00,,,0.00,WeatherCatV1.02B3,2013-12-02 12:22:00,
2013-12-02 06:27:00,54.7,50.0,29.90,South,170,0.0,2.0,84,0.00,,,0.00,WeatherCatV1.02B3,2013-12-02 12:27:00,
2013-12-02 06:32:00,54.6,49.9,29.90,South,178,0.0,1.0,84,0.00,,,0.00,WeatherCatV1.02B3,2013-12-02 12:32:00,
2013-12-02 06:37:00,54.7,50.0,29.90,SSE,161,5.0,5.0,84,0.00,,,0.00,WeatherCatV1.02B3,2013-12-02 12:37:00,
2013-12-02 06:42:00,54.7,50.0,29.90,South,188,0.0,2.0,84,0.00,,,0.00,WeatherCatV1.02B3,2013-12-02 12:42:00,
2013-12-02 06:47:00,54.7,50.0,29.90,South,172,0.0,2.0,84,0.00,,,0.00,WeatherCatV1.02B3,2013-12-02 12:47:00,
2013-12-02 06:52:00,54.8,50.1,29.90,South,169,1.0,5.0,84,0.00,,,0.00,WeatherCatV1.02B3,2013-12-02 12:52:00,
2013-12-02 06:57:00,54.8,50.1,29.90,SSE,165,0.0,4.0,84,0.00,,,0.00,WeatherCatV1.02B3,2013-12-02 12:57:00,
2013-12-02 07:02:00,54.8,50.1,29.90,SSW,199,0.0,2.0,84,0.00,,,0.00,WeatherCatV1.02B3,2013-12-02 13:02:00,
2013-12-02 07:07:00,54.8,50.1,29.90,SSE,156,0.0,4.0,84,0.00,,,0.00,WeatherCatV1.02B3,2013-12-02 13:07:00,
2013-12-02 07:12:00,54.8,49.7,29.90,South,173,0.0,4.0,83,0.00,,,0.00,WeatherCatV1.02B3,2013-12-02 13:12:00,
2013-12-02 07:17:00,54.8,49.7,29.90,SSW,199,0.0,2.0,83,0.00,,,0.00,WeatherCatV1.02B3,2013-12-02 13:17:00,
2013-12-02 07:22:00,54.8,49.7,29.90,SSW,200,0.0,1.0,83,0.00,,,0.00,WeatherCatV1.02B3,2013-12-02 13:22:00,
2013-12-02 07:27:00,54.9,49.8,29.90,South,191,0.0,0.0,83,0.00,,,0.00,WeatherCatV1.02B3,2013-12-02 13:27:00,
2013-12-02 07:32:00,54.9,49.8,29.90,South,180,0.0,0.0,83,0.00,,,0.00,WeatherCatV1.02B3,2013-12-02 13:32:00,
2013-12-02 07:37:00,55.0,49.9,29.90,South,182,0.0,0.0,83,0.00,,,0.00,WeatherCatV1.02B3,2013-12-02 13:37:00,
2013-12-02 07:42:00,55.0,49.9,29.90,SSE,161,0.0,2.0,83,0.00,,,0.00,WeatherCatV1.02B3,2013-12-02 13:42:00,
2013-12-02 07:47:00,55.2,50.1,29.90,SW,235,0.0,0.0,83,0.00,,,0.00,WeatherCatV1.02B3,2013-12-02 13:47:00,
2013-12-02 07:52:00,55.6,50.2,29.90,South,180,0.0,4.0,82,0.00,,,0.00,WeatherCatV1.02B3,2013-12-02 13:52:00,
2013-12-02 07:57:00,56.0,50.6,29.90,South,190,0.0,2.0,82,0.00,,,0.00,WeatherCatV1.02B3,2013-12-02 13:57:00,
2013-12-02 08:02:00,56.3,50.9,29.90,South,182,0.0,2.0,82,0.00,,,0.00,WeatherCatV1.02B3,2013-12-02 14:02:00,
2013-12-02 08:07:00,56.7,50.9,29.90,SSE,161,2.0,2.0,81,0.00,,,0.00,WeatherCatV1.02B3,2013-12-02 14:07:00,
2013-12-02 08:12:00,56.9,50.8,29.90,SE,143,0.0,0.0,80,0.00,,,0.00,WeatherCatV1.02B3,2013-12-02 14:12:00,
2013-12-02 08:17:00,57.4,51.3,29.90,SSE,166,5.0,5.0,80,0.00,,,0.00,WeatherCatV1.02B3,2013-12-02 14:17:00,
2013-12-02 08:22:00,57.8,51.3,29.90,SSW,194,0.0,2.0,79,0.00,,,0.00,WeatherCatV1.02B3,2013-12-02 14:22:00,
2013-12-02 08:27:00,58.0,51.5,29.90,SSE,161,0.0,4.0,79,0.00,,,0.00,WeatherCatV1.02B3,2013-12-02 14:27:00,
2013-12-02 08:32:00,57.9,51.1,29.89,South,182,2.0,5.0,78,0.00,,,0.00,WeatherCatV1.02B3,2013-12-02 14:32:00,
2013-12-02 08:37:00,58.0,51.2,29.89,SSE,147,0.0,6.0,78,0.00,,,0.00,WeatherCatV1.02B3,2013-12-02 14:37:00,
2013-12-02 08:42:00,58.5,51.7,29.89,SSE,150,0.0,0.0,78,0.00,,,0.00,WeatherCatV1.02B3,2013-12-02 14:42:00,
2013-12-02 08:47:00,59.1,52.2,29.89,South,176,0.0,4.0,78,0.00,,,0.00,WeatherCatV1.02B3,2013-12-02 14:47:00,
2013-12-02 08:52:00,59.6,52.0,29.89,SSE,162,0.0,2.0,76,0.00,,,0.00,WeatherCatV1.02B3,2013-12-02 14:52:00,
2013-12-02 08:57:00,59.8,51.9,29.89,SSW,207,2.0,3.0,75,0.00,,,0.00,WeatherCatV1.02B3,2013-12-02 14:57:00,
2013-12-02 09:02:00,60.0,52.0,29.89,SE,144,5.0,5.0,75,0.00,,,0.00,WeatherCatV1.02B3,2013-12-02 15:02:00,
2013-12-02 09:07:00,60.4,52.8,29.89,SE,136,0.0,2.0,76,0.00,,,0.00,WeatherCatV1.02B3,2013-12-02 15:07:00,
2013-12-02 09:12:00,60.7,52.4,29.89,SSW,205,0.0,4.0,74,0.00,,,0.00,WeatherCatV1.02B3,2013-12-02 15:12:00,
2013-12-02 09:17:00,60.9,52.9,29.89,SSE,155,1.0,4.0,75,0.00,,,0.00,WeatherCatV1.02B3,2013-12-02 15:17:00,
2013-12-02 09:22:00,61.2,52.8,29.89,SSE,163,0.0,0.0,74,0.00,,,0.00,WeatherCatV1.02B3,2013-12-02 15:22:00,
2013-12-02 09:27:00,61.3,52.9,29.89,SSE,167,0.0,0.0,74,0.00,,,0.00,WeatherCatV1.02B3,2013-12-02 15:27:00,
2013-12-02 09:32:00,61.4,53.0,29.89,South,186,2.0,2.0,74,0.00,,,0.00,WeatherCatV1.02B3,2013-12-02 15:32:00,
2013-12-02 09:37:00,61.4,53.4,29.89,SSE,161,2.0,7.0,75,0.00,,,0.00,WeatherCatV1.02B3,2013-12-02 15:37:00,
2013-12-02 09:42:00,61.5,53.9,29.89,SSE,155,0.0,1.0,76,0.00,,,0.00,WeatherCatV1.02B3,2013-12-02 15:42:00,
2013-12-02 09:47:00,61.9,54.2,29.89,SSE,155,0.0,0.0,76,0.00,,,0.00,WeatherCatV1.02B3,2013-12-02 15:47:00,
2013-12-02 09:52:00,62.5,55.2,29.89,SSW,197,0.0,0.0,77,0.00,,,0.00,WeatherCatV1.02B3,2013-12-02 15:52:00,
2013-12-02 09:57:00,63.2,55.9,29.88,SSE,167,0.0,6.0,77,0.00,,,0.00,WeatherCatV1.02B3,2013-12-02 15:57:00,
2013-12-02 10:02:00,63.5,56.2,29.88,SE,140,2.0,2.0,77,0.00,,,0.00,WeatherCatV1.02B3,2013-12-02 16:02:00,
2013-12-02 10:07:00,63.7,56.7,29.88,SW,214,0.0,2.0,78,0.00,,,0.00,WeatherCatV1.02B3,2013-12-02 16:07:00,
2013-12-02 10:12:00,64.0,57.3,29.88,SSW,211,0.0,1.0,79,0.00,,,0.00,WeatherCatV1.02B3,2013-12-02 16:12:00,
2013-12-02 10:17:00,64.3,57.3,29.87,South,175,0.0,4.0,78,0.00,,,0.00,WeatherCatV1.02B3,2013-12-02 16:17:00,
2013-12-02 10:22:00,64.3,57.3,29.87,South,171,2.0,4.0,78,0.00,,,0.00,WeatherCatV1.02B3,2013-12-02 16:22:00,
2013-12-02 10:27:00,64.5,57.8,29.87,SE,142,0.0,2.0,79,0.00,,,0.00,WeatherCatV1.02B3,2013-12-02 16:27:00,
2013-12-02 10:32:00,64.5,57.5,29.86,SSE,158,0.0,5.0,78,0.00,,,0.00,WeatherCatV1.02B3,2013-12-02 16:32:00,
2013-12-02 10:37:00,64.9,58.2,29.86,South,189,0.0,5.0,79,0.00,,,0.00,WeatherCatV1.02B3,2013-12-02 16:37:00,
2013-12-02 10:42:00,65.5,58.5,29.86,SSW,202,0.0,7.0,78,0.00,,,0.00,WeatherCatV1.02B3,2013-12-02 16:42:00,
2013-12-02 10:47:00,65.8,58.4,29.85,SE,135,4.0,5.0,77,0.00,,,0.00,WeatherCatV1.02B3,2013-12-02 16:47:00,
2013-12-02 10:52:00,66.2,58.4,29.85,NW,305,0.0,2.0,76,0.00,,,0.00,WeatherCatV1.02B3,2013-12-02 16:52:00,
2013-12-02 10:57:00,66.3,58.1,29.86,SSW,201,0.0,4.0,75,0.00,,,0.00,WeatherCatV1.02B3,2013-12-02 16:57:00,
2013-12-02 11:02:00,66.1,57.9,29.86,SSW,201,0.0,1.0,75,0.00,,,0.00,WeatherCatV1.02B3,2013-12-02 17:02:00,
2013-12-02 11:07:00,65.9,58.1,29.85,South,178,0.0,4.0,76,0.00,,,0.00,WeatherCatV1.02B3,2013-12-02 17:07:00,
2013-12-02 11:12:00,65.9,58.5,29.85,SSW,198,0.0,2.0,77,0.00,,,0.00,WeatherCatV1.02B3,2013-12-02 17:12:00,
2013-12-02 11:17:00,66.4,58.6,29.85,SSW,193,0.0,5.0,76,0.00,,,0.00,WeatherCatV1.02B3,2013-12-02 17:17:00,
2013-12-02 11:22:00,66.9,59.1,29.85,SW,219,0.0,2.0,76,0.00,,,0.00,WeatherCatV1.02B3,2013-12-02 17:22:00,
2013-12-02 11:27:00,67.1,59.3,29.85,SW,221,0.0,0.0,76,0.00,,,0.00,WeatherCatV1.02B3,2013-12-02 17:27:00,
2013-12-02 11:32:00,67.2,59.0,29.84,SW,214,0.0,2.0,75,0.00,,,0.00,WeatherCatV1.02B3,2013-12-02 17:32:00,
2013-12-02 11:37:00,67.4,59.6,29.84,SSW,212,0.0,0.0,76,0.00,,,0.00,WeatherCatV1.02B3,2013-12-02 17:37:00,
2013-12-02 11:42:00,67.6,59.4,29.84,SSW,210,0.0,1.0,75,0.00,,,0.00,WeatherCatV1.02B3,2013-12-02 17:42:00,
2013-12-02 11:47:00,67.8,59.6,29.83,SSW,205,0.0,3.0,75,0.00,,,0.00,WeatherCatV1.02B3,2013-12-02 17:47:00,
2013-12-02 11:52:00,68.1,59.9,29.83,SSW,205,1.0,1.0,75,0.00,,,0.00,WeatherCatV1.02B3,2013-12-02 17:52:00,
2013-12-02 11:57:00,68.3,59.7,29.82,SSW,205,0.0,2.0,74,0.00,,,0.00,WeatherCatV1.02B3,2013-12-02 17:57:00,
2013-12-02 12:02:00,68.4,59.8,29.82,SSW,206,0.0,2.0,74,0.00,,,0.00,WeatherCatV1.02B3,2013-12-02 18:02:00,
2013-12-02 12:07:00,69.7,60.6,29.82,SW,230,5.0,6.0,73,0.00,,,0.00,WeatherCatV1.02B3,2013-12-02 18:07:00,
2013-12-02 12:12:00,69.6,59.8,29.82,SSW,209,0.0,3.0,71,0.00,,,0.00,WeatherCatV1.02B3,2013-12-02 18:12:00,
2013-12-02 12:17:00,69.3,59.9,29.81,SSW,209,0.0,2.0,72,0.00,,,0.00,WeatherCatV1.02B3,2013-12-02 18:17:00,
2013-12-02 12:22:00,69.5,60.5,29.81,SSW,204,2.0,3.0,73,0.00,,,0.00,WeatherCatV1.02B3,2013-12-02 18:22:00,
2013-12-02 12:27:00,69.4,60.0,29.81,SW,234,2.0,5.0,72,0.00,,,0.00,WeatherCatV1.02B3,2013-12-02 18:27:00,
2013-12-02 12:32:00,69.2,60.2,29.82,SW,234,3.0,3.0,73,0.00,,,0.00,WeatherCatV1.02B3,2013-12-02 18:32:00,
2013-12-02 12:37:00,68.7,60.1,29.81,ESE,120,0.0,5.0,74,0.00,,,0.00,WeatherCatV1.02B3,2013-12-02 18:37:00,
2013-12-02 12:42:00,68.4,59.8,29.81,SSE,153,0.0,4.0,74,0.00,,,0.00,WeatherCatV1.02B3,2013-12-02 18:42:00,
2013-12-02 12:47:00,68.3,60.1,29.81,SE,145,0.0,0.0,75,0.00,,,0.00,WeatherCatV1.02B3,2013-12-02 18:47:00,
2013-12-02 12:52:00,68.7,60.4,29.80,SSW,204,1.0,4.0,75,0.00,,,0.00,WeatherCatV1.02B3,2013-12-02 18:52:00,
2013-12-02 12:57:00,68.9,60.6,29.80,SSW,195,0.0,2.0,75,0.00,,,0.00,WeatherCatV1.02B3,2013-12-02 18:57:00,
2013-12-02 13:02:00,70.5,61.4,29.79,South,183,0.0,2.0,73,0.00,,,0.00,WeatherCatV1.02B3,2013-12-02 19:02:00,
2013-12-02 13:07:00,71.9,61.6,29.79,South,180,2.0,2.0,70,0.00,,,0.00,WeatherCatV1.02B3,2013-12-02 19:07:00,
2013-12-02 13:12:00,72.5,61.3,29.78,South,175,0.0,0.0,68,0.00,,,0.00,WeatherCatV1.02B3,2013-12-02 19:12:00,
2013-12-02 13:17:00,72.1,60.9,29.78,SE,136,4.0,5.0,68,0.00,,,0.00,WeatherCatV1.02B3,2013-12-02 19:17:00,
2013-12-02 13:22:00,71.0,60.7,29.77,WSW,243,0.0,5.0,70,0.00,,,0.00,WeatherCatV1.02B3,2013-12-02 19:22:00,
2013-12-02 13:27:00,70.3,60.8,29.77,South,171,0.0,2.0,72,0.00,,,0.00,WeatherCatV1.02B3,2013-12-02 19:27:00,
2013-12-02 13:32:00,69.9,60.8,29.77,ESE,120,2.0,7.0,73,0.00,,,0.00,WeatherCatV1.02B3,2013-12-02 19:32:00,
2013-12-02 13:37:00,69.6,60.5,29.77,SSW,202,0.0,0.0,73,0.00,,,0.00,WeatherCatV1.02B3,2013-12-02 19:37:00,
2013-12-02 13:42:00,69.3,60.3,29.77,South,171,0.0,4.0,73,0.00,,,0.00,WeatherCatV1.02B3,2013-12-02 19:42:00,
2013-12-02 13:47:00,69.2,60.2,29.76,South,183,3.0,3.0,73,0.00,,,0.00,WeatherCatV1.02B3,2013-12-02 19:47:00,
2013-12-02 13:52:00,69.2,60.5,29.76,South,189,0.0,0.0,74,0.00,,,0.00,WeatherCatV1.02B3,2013-12-02 19:52:00,
2013-12-02 13:57:00,69.3,60.6,29.76,SSW,199,1.0,3.0,74,0.00,,,0.00,WeatherCatV1.02B3,2013-12-02 19:57:00,
2013-12-02 14:02:00,69.4,60.7,29.76,SSW,211,0.0,6.0,74,0.00,,,0.00,WeatherCatV1.02B3,2013-12-02 20:02:00,
2013-12-02 14:07:00,69.4,60.7,29.76,SSW,196,0.0,3.0,74,0.00,,,0.00,WeatherCatV1.02B3,2013-12-02 20:07:00,
2013-12-02 14:12:00,69.2,60.5,29.76,SSW,202,0.0,3.0,74,0.00,,,0.00,WeatherCatV1.02B3,2013-12-02 20:12:00,
2013-12-02 14:17:00,69.1,60.8,29.76,SSW,202,0.0,1.0,75,0.00,,,0.00,WeatherCatV1.02B3,2013-12-02 20:17:00,
2013-12-02 14:22:00,69.4,60.7,29.76,SW,230,0.0,0.0,74,0.00,,,0.00,WeatherCatV1.02B3,2013-12-02 20:22:00,
2013-12-02 14:27:00,69.7,61.0,29.76,WSW,250,3.0,4.0,74,0.00,,,0.00,WeatherCatV1.02B3,2013-12-02 20:27:00,
2013-12-02 14:32:00,69.5,60.8,29.75,NNW,342,0.0,1.0,74,0.00,,,0.00,WeatherCatV1.02B3,2013-12-02 20:32:00,
2013-12-02 14:37:00,69.0,60.7,29.76,WSW,253,0.0,2.0,75,0.00,,,0.00,WeatherCatV1.02B3,2013-12-02 20:37:00,
2013-12-02 14:42:00,68.8,60.5,29.75,WNW,283,0.0,3.0,75,0.00,,,0.00,WeatherCatV1.02B3,2013-12-02 20:42:00,
2013-12-02 14:47:00,68.6,60.7,29.75,West,264,0.0,0.0,76,0.00,,,0.00,WeatherCatV1.02B3,2013-12-02 20:47:00,
2013-12-02 14:52:00,68.4,60.9,29.75,West,264,0.0,0.0,77,0.00,,,0.00,WeatherCatV1.02B3,2013-12-02 20:52:00,
2013-12-02 14:57:00,68.3,60.8,29.76,West,264,0.0,0.0,77,0.00,,,0.00,WeatherCatV1.02B3,2013-12-02 20:57:00,
2013-12-02 15:02:00,68.2,60.7,29.76,West,264,0.0,0.0,77,0.00,,,0.00,WeatherCatV1.02B3,2013-12-02 21:02:00,
2013-12-02 15:07:00,68.3,61.2,29.76,West,264,0.0,2.0,78,0.00,,,0.00,WeatherCatV1.02B3,2013-12-02 21:07:00,
2013-12-02 15:12:00,68.4,61.3,29.75,West,264,0.0,2.0,78,0.00,,,0.00,WeatherCatV1.02B3,2013-12-02 21:12:00,
2013-12-02 15:17:00,68.5,61.4,29.76,West,264,0.0,0.0,78,0.00,,,0.00,WeatherCatV1.02B3,2013-12-02 21:17:00,
2013-12-02 15:22:00,68.9,61.4,29.75,West,264,2.0,2.0,77,0.00,,,0.00,WeatherCatV1.02B3,2013-12-02 21:22:00,
2013-12-02 15:27:00,69.1,61.2,29.75,WSW,255,3.0,5.0,76,0.00,,,0.00,WeatherCatV1.02B3,2013-12-02 21:27:00,
2013-12-02 15:32:00,69.1,61.2,29.75,SW,234,0.0,0.0,76,0.00,,,0.00,WeatherCatV1.02B3,2013-12-02 21:32:00,
2013-12-02 15:37:00,69.0,61.1,29.75,West,259,0.0,3.0,76,0.00,,,0.00,WeatherCatV1.02B3,2013-12-02 21:37:00,
2013-12-02 15:42:00,68.8,60.9,29.76,WNW,283,0.0,2.0,76,0.00,,,0.00,WeatherCatV1.02B3,2013-12-02 21:42:00,
2013-12-02 15:47:00,68.6,61.1,29.76,WNW,283,0.0,0.0,77,0.00,,,0.00,WeatherCatV1.02B3,2013-12-02 21:47:00,
2013-12-02 15:52:00,68.5,61.0,29.76,WNW,283,0.0,3.0,77,0.00,,,0.00,WeatherCatV1.02B3,2013-12-02 21:52:00,
2013-12-02 15:57:00,68.3,60.8,29.76,WNW,283,0.0,0.0,77,0.00,,,0.00,WeatherCatV1.02B3,2013-12-02 21:57:00,
2013-12-02 16:02:00,68.0,60.9,29.76,WNW,283,0.0,0.0,78,0.00,,,0.00,WeatherCatV1.02B3,2013-12-02 22:02:00,
2013-12-02 16:07:00,67.9,60.8,29.76,WNW,283,0.0,0.0,78,0.00,,,0.00,WeatherCatV1.02B3,2013-12-02 22:07:00,
2013-12-02 16:12:00,67.7,60.9,29.76,WNW,283,0.0,0.0,79,0.00,,,0.00,WeatherCatV1.02B3,2013-12-02 22:12:00,
2013-12-02 16:17:00,67.5,60.7,29.75,WNW,283,0.0,0.0,79,0.00,,,0.00,WeatherCatV1.02B3,2013-12-02 22:17:00,
2013-12-02 16:22:00,67.2,60.5,29.75,WNW,283,0.0,0.0,79,0.00,,,0.00,WeatherCatV1.02B3,2013-12-02 22:22:00,
2013-12-02 16:27:00,66.8,60.4,29.75,WNW,283,0.0,0.0,80,0.00,,,0.00,WeatherCatV1.02B3,2013-12-02 22:27:00,
2013-12-02 16:32:00,66.3,60.3,29.76,WNW,283,0.0,0.0,81,0.00,,,0.00,WeatherCatV1.02B3,2013-12-02 22:32:00,
2013-12-02 16:37:00,65.8,60.1,29.75,WNW,283,0.0,0.0,82,0.00,,,0.00,WeatherCatV1.02B3,2013-12-02 22:37:00,
2013-12-02 16:42:00,65.3,59.7,29.75,WNW,283,0.0,0.0,82,0.00,,,0.00,WeatherCatV1.02B3,2013-12-02 22:42:00,
2013-12-02 16:47:00,64.7,59.7,29.75,WNW,283,0.0,0.0,84,0.00,,,0.00,WeatherCatV1.02B3,2013-12-02 22:47:00,
2013-12-02 16:52:00,64.3,59.4,29.76,WNW,283,0.0,0.0,84,0.00,,,0.00,WeatherCatV1.02B3,2013-12-02 22:52:00,
2013-12-02 16:57:00,64.1,59.5,29.76,WNW,283,0.0,0.0,85,0.00,,,0.00,WeatherCatV1.02B3,2013-12-02 22:57:00,
2013-12-02 17:02:00,63.8,59.2,29.76,WNW,283,0.0,0.0,85,0.00,,,0.00,WeatherCatV1.02B3,2013-12-02 23:02:00,
2013-12-02 17:07:00,63.5,58.9,29.76,WNW,283,0.0,0.0,85,0.00,,,0.00,WeatherCatV1.02B3,2013-12-02 23:07:00,
2013-12-02 17:12:00,63.2,58.9,29.76,WNW,283,0.0,0.0,86,0.00,,,0.00,WeatherCatV1.02B3,2013-12-02 23:12:00,
2013-12-02 17:17:00,63.0,58.7,29.76,WNW,283,0.0,0.0,86,0.00,,,0.00,WeatherCatV1.02B3,2013-12-02 23:17:00,
2013-12-02 17:22:00,62.7,58.4,29.76,WNW,283,0.0,0.0,86,0.00,,,0.00,WeatherCatV1.02B3,2013-12-02 23:22:00,
2013-12-02 17:27:00,62.5,58.6,29.76,WNW,283,0.0,0.0,87,0.00,,,0.00,WeatherCatV1.02B3,2013-12-02 23:27:00,
2013-12-02 17:32:00,62.3,58.4,29.76,WNW,283,0.0,0.0,87,0.00,,,0.00,WeatherCatV1.02B3,2013-12-02 23:32:00,
2013-12-02 17:37:00,62.2,58.6,29.76,WNW,283,0.0,0.0,88,0.00,,,0.00,WeatherCatV1.02B3,2013-12-02 23:37:00,
2013-12-02 17:42:00,62.0,58.7,29.76,WNW,283,0.0,0.0,89,0.00,,,0.00,WeatherCatV1.02B3,2013-12-02 23:42:00,
2013-12-02 17:47:00,61.9,58.6,29.76,WNW,283,0.0,0.0,89,0.00,,,0.00,WeatherCatV1.02B3,2013-12-02 23:47:00,
2013-12-02 17:52:00,61.8,58.5,29.76,WNW,283,0.0,0.0,89,0.00,,,0.00,WeatherCatV1.02B3,2013-12-02 23:52:00,
2013-12-02 17:57:00,61.6,58.3,29.76,WNW,283,0.0,0.0,89,0.00,,,0.00,WeatherCatV1.02B3,2013-12-02 23:57:00,
2013-12-02 18:02:00,61.4,58.1,29.76,WNW,283,0.0,0.0,89,0.00,,,0.00,WeatherCatV1.02B3,2013-12-03 00:02:00,
2013-12-02 18:07:00,61.3,58.3,29.76,WNW,283,0.0,0.0,90,0.00,,,0.00,WeatherCatV1.02B3,2013-12-03 00:07:00,
2013-12-02 18:12:00,61.1,58.1,29.76,WNW,283,0.0,0.0,90,0.00,,,0.00,WeatherCatV1.02B3,2013-12-03 00:12:00,
2013-12-02 18:17:00,60.9,57.9,29.76,WNW,283,0.0,0.0,90,0.00,,,0.00,WeatherCatV1.02B3,2013-12-03 00:17:00,
2013-12-02 18:22:00,60.8,57.8,29.76,WNW,283,0.0,0.0,90,0.00,,,0.00,WeatherCatV1.02B3,2013-12-03 00:22:00,
2013-12-02 18:27:00,60.8,58.2,29.76,WNW,283,0.0,0.0,91,0.00,,,0.00,WeatherCatV1.02B3,2013-12-03 00:27:00,
2013-12-02 18:32:00,60.9,58.3,29.76,WNW,283,0.0,0.0,91,0.00,,,0.00,WeatherCatV1.02B3,2013-12-03 00:32:00,
2013-12-02 18:37:00,60.9,58.3,29.76,WNW,283,0.0,0.0,91,0.00,,,0.00,WeatherCatV1.02B3,2013-12-03 00:37:00,
2013-12-02 18:42:00,60.9,58.3,29.76,WNW,283,0.0,0.0,91,0.00,,,0.00,WeatherCatV1.02B3,2013-12-03 00:42:00,
2013-12-02 18:47:00,60.8,58.5,29.76,WNW,283,0.0,0.0,92,0.00,,,0.00,WeatherCatV1.02B3,2013-12-03 00:47:00,
2013-12-02 18:52:00,60.8,58.5,29.76,WNW,283,0.0,0.0,92,0.00,,,0.00,WeatherCatV1.02B3,2013-12-03 00:52:00,
2013-12-02 18:57:00,60.7,58.1,29.76,WNW,283,0.0,0.0,91,0.00,,,0.00,WeatherCatV1.02B3,2013-12-03 00:57:00,
2013-12-02 19:02:00,60.7,58.1,29.76,WNW,283,0.0,0.0,91,0.00,,,0.00,WeatherCatV1.02B3,2013-12-03 01:02:00,
2013-12-02 19:07:00,60.6,58.0,29.77,WNW,283,0.0,0.0,91,0.00,,,0.00,WeatherCatV1.02B3,2013-12-03 01:07:00,
2013-12-02 19:12:00,60.5,57.9,29.77,WNW,283,0.0,0.0,91,0.00,,,0.00,WeatherCatV1.02B3,2013-12-03 01:12:00,
2013-12-02 19:17:00,60.4,57.8,29.77,WNW,283,0.0,0.0,91,0.00,,,0.00,WeatherCatV1.02B3,2013-12-03 01:17:00,
2013-12-02 19:22:00,60.3,58.0,29.78,WNW,283,0.0,0.0,92,0.00,,,0.00,WeatherCatV1.02B3,2013-12-03 01:22:00,
2013-12-02 19:27:00,60.3,58.0,29.78,WNW,283,0.0,0.0,92,0.00,,,0.00,WeatherCatV1.02B3,2013-12-03 01:27:00,
2013-12-02 19:32:00,60.3,58.0,29.78,WNW,283,0.0,0.0,92,0.00,,,0.00,WeatherCatV1.02B3,2013-12-03 01:32:00,
2013-12-02 19:37:00,60.3,58.0,29.78,WNW,283,0.0,0.0,92,0.00,,,0.00,WeatherCatV1.02B3,2013-12-03 01:37:00,
2013-12-02 19:42:00,60.3,58.0,29.78,WNW,283,0.0,0.0,92,0.00,,,0.00,WeatherCatV1.02B3,2013-12-03 01:42:00,
2013-12-02 19:47:00,60.1,57.8,29.78,WNW,283,0.0,0.0,92,0.00,,,0.00,WeatherCatV1.02B3,2013-12-03 01:47:00,
2013-12-02 19:52:00,60.0,57.7,29.79,WNW,283,0.0,0.0,92,0.00,,,0.00,WeatherCatV1.02B3,2013-12-03 01:52:00,
2013-12-02 19:57:00,59.9,57.6,29.79,WNW,283,0.0,0.0,92,0.00,,,0.00,WeatherCatV1.02B3,2013-12-03 01:57:00,
2013-12-02 20:02:00,59.8,57.5,29.79,WNW,283,0.0,0.0,92,0.00,,,0.00,WeatherCatV1.02B3,2013-12-03 02:02:00,
2013-12-02 20:07:00,59.7,57.4,29.78,WNW,283,0.0,0.0,92,0.00,,,0.00,WeatherCatV1.02B3,2013-12-03 02:07:00,
2013-12-02 20:12:00,59.6,57.3,29.79,WNW,283,0.0,0.0,92,0.00,,,0.00,WeatherCatV1.02B3,2013-12-03 02:12:00,
2013-12-02 20:17:00,59.6,57.3,29.79,WNW,283,0.0,0.0,92,0.00,,,0.00,WeatherCatV1.02B3,2013-12-03 02:17:00,
2013-12-02 20:22:00,59.5,57.2,29.79,WNW,283,0.0,0.0,92,0.00,,,0.00,WeatherCatV1.02B3,2013-12-03 02:22:00,
2013-12-02 20:27:00,59.4,57.1,29.79,WNW,283,0.0,0.0,92,0.00,,,0.00,WeatherCatV1.02B3,2013-12-03 02:27:00,
2013-12-02 20:32:00,59.3,57.3,29.79,WNW,283,0.0,0.0,93,0.00,,,0.00,WeatherCatV1.02B3,2013-12-03 02:32:00,
2013-12-02 20:37:00,59.1,57.1,29.79,WNW,283,0.0,0.0,93,0.00,,,0.00,WeatherCatV1.02B3,2013-12-03 02:37:00,
2013-12-02 20:42:00,59.0,57.0,29.79,WNW,283,0.0,0.0,93,0.00,,,0.00,WeatherCatV1.02B3,2013-12-03 02:42:00,
2013-12-02 20:47:00,58.9,56.9,29.79,WNW,283,0.0,0.0,93,0.00,,,0.00,WeatherCatV1.02B3,2013-12-03 02:47:00,
2013-12-02 20:52:00,58.7,56.7,29.79,WNW,283,0.0,0.0,93,0.00,,,0.00,WeatherCatV1.02B3,2013-12-03 02:52:00,
2013-12-02 20:57:00,58.6,56.6,29.79,WNW,283,0.0,0.0,93,0.00,,,0.00,WeatherCatV1.02B3,2013-12-03 02:57:00,
2013-12-02 21:02:00,58.5,56.5,29.79,WNW,283,0.0,0.0,93,0.00,,,0.00,WeatherCatV1.02B3,2013-12-03 03:02:00,
2013-12-02 21:07:00,58.6,56.6,29.79,WNW,283,0.0,0.0,93,0.00,,,0.00,WeatherCatV1.02B3,2013-12-03 03:07:00,
2013-12-02 21:12:00,58.7,57.0,29.79,WNW,283,0.0,0.0,94,0.00,,,0.00,WeatherCatV1.02B3,2013-12-03 03:12:00,
2013-12-02 21:17:00,58.8,56.8,29.78,WNW,283,0.0,0.0,93,0.00,,,0.00,WeatherCatV1.02B3,2013-12-03 03:17:00,
2013-12-02 21:22:00,58.9,57.2,29.79,WNW,283,0.0,0.0,94,0.00,,,0.00,WeatherCatV1.02B3,2013-12-03 03:22:00,
2013-12-02 21:27:00,58.9,57.2,29.79,WNW,283,0.0,0.0,94,0.00,,,0.00,WeatherCatV1.02B3,2013-12-03 03:27:00,
2013-12-02 21:32:00,58.9,57.2,29.79,WNW,283,0.0,0.0,94,0.00,,,0.00,WeatherCatV1.02B3,2013-12-03 03:32:00,
2013-12-02 21:37:00,58.9,57.2,29.79,WNW,283,0.0,0.0,94,0.00,,,0.00,WeatherCatV1.02B3,2013-12-03 03:37:00,
2013-12-02 21:42:00,58.9,57.2,29.79,WNW,283,0.0,0.0,94,0.00,,,0.00,WeatherCatV1.02B3,2013-12-03 03:42:00,
2013-12-02 21:47:00,58.9,57.2,29.79,WNW,283,0.0,0.0,94,0.00,,,0.00,WeatherCatV1.02B3,2013-12-03 03:47:00,
2013-12-02 21:52:00,58.9,57.2,29.79,WNW,283,0.0,0.0,94,0.00,,,0.00,WeatherCatV1.02B3,2013-12-03 03:52:00,
2013-12-02 21:57:00,58.8,57.1,29.79,WNW,283,0.0,0.0,94,0.00,,,0.00,WeatherCatV1.02B3,2013-12-03 03:57:00,
2013-12-02 22:02:00,58.7,57.0,29.79,WNW,283,0.0,0.0,94,0.00,,,0.00,WeatherCatV1.02B3,2013-12-03 04:02:00,
2013-12-02 22:07:00,58.6,56.9,29.79,WNW,283,0.0,0.0,94,0.00,,,0.00,WeatherCatV1.02B3,2013-12-03 04:07:00,
2013-12-02 22:12:00,58.4,56.4,29.79,WNW,283,0.0,0.0,93,0.00,,,0.00,WeatherCatV1.02B3,2013-12-03 04:12:00,
2013-12-02 22:17:00,58.3,56.3,29.79,WNW,283,0.0,0.0,93,0.00,,,0.00,WeatherCatV1.02B3,2013-12-03 04:17:00,
2013-12-02 22:22:00,58.2,56.5,29.79,WNW,283,0.0,0.0,94,0.00,,,0.00,WeatherCatV1.02B3,2013-12-03 04:22:00,
2013-12-02 22:27:00,58.1,56.4,29.79,WNW,283,0.0,0.0,94,0.00,,,0.00,WeatherCatV1.02B3,2013-12-03 04:27:00,
2013-12-02 22:32:00,57.9,56.2,29.78,WNW,283,0.0,0.0,94,0.00,,,0.00,WeatherCatV1.02B3,2013-12-03 04:32:00,
2013-12-02 22:37:00,57.8,55.8,29.78,WNW,283,0.0,0.0,93,0.00,,,0.00,WeatherCatV1.02B3,2013-12-03 04:37:00,
2013-12-02 22:42:00,57.6,55.6,29.78,WNW,283,0.0,0.0,93,0.00,,,0.00,WeatherCatV1.02B3,2013-12-03 04:42:00,
2013-12-02 22:47:00,57.5,55.8,29.78,WNW,283,0.0,0.0,94,0.00,,,0.00,WeatherCatV1.02B3,2013-12-03 04:47:00,
2013-12-02 22:52:00,57.3,55.6,29.78,WNW,283,0.0,0.0,94,0.00,,,0.00,WeatherCatV1.02B3,2013-12-03 04:52:00,
2013-12-02 22:57:00,57.1,55.1,29.78,WNW,283,0.0,0.0,93,0.00,,,0.00,WeatherCatV1.02B3,2013-12-03 04:57:00,
2013-12-02 23:01:00,57.0,55.0,29.78,WNW,283,0.0,0.0,93,0.00,,,0.00,WeatherCatV1.02B3,2013-12-03 05:01:00,
2013-12-02 23:06:00,56.7,55.0,29.78,WNW,283,0.0,0.0,94,0.00,,,0.00,WeatherCatV1.02B3,2013-12-03 05:06:00,
2013-12-02 23:11:00,56.5,54.5,29.78,WNW,283,0.0,0.0,93,0.00,,,0.00,WeatherCatV1.02B3,2013-12-03 05:11:00,
2013-12-02 23:16:00,56.3,54.3,29.78,WNW,283,0.0,0.0,93,0.00,,,0.00,WeatherCatV1.02B3,2013-12-03 05:16:00,
2013-12-02 23:21:00,56.0,54.3,29.78,WNW,283,0.0,0.0,94,0.00,,,0.00,WeatherCatV1.02B3,2013-12-03 05:21:00,
2013-12-02 23:26:00,55.9,53.9,29.78,WNW,283,0.0,0.0,93,0.00,,,0.00,WeatherCatV1.02B3,2013-12-03 05:26:00,
2013-12-02 23:31:00,55.7,54.0,29.78,WNW,283,0.0,0.0,94,0.00,,,0.00,WeatherCatV1.02B3,2013-12-03 05:31:00,
2013-12-02 23:36:00,55.5,53.8,29.79,WNW,283,0.0,0.0,94,0.00,,,0.00,WeatherCatV1.02B3,2013-12-03 05:36:00,
2013-12-02 23:41:00,55.3,53.6,29.78,WNW,283,0.0,0.0,94,0.00,,,0.00,WeatherCatV1.02B3,2013-12-03 05:41:00,
2013-12-02 23:46:00,55.1,53.1,29.78,WNW,283,0.0,0.0,93,0.00,,,0.00,WeatherCatV1.02B3,2013-12-03 05:46:00,
2013-12-02 23:51:00,54.9,52.9,29.78,WNW,283,0.0,0.0,93,0.00,,,0.00,WeatherCatV1.02B3,2013-12-03 05:51:00,
2013-12-02 23:56:00,54.8,53.1,29.78,WNW,283,0.0,0.0,94,0.00,,,0.00,WeatherCatV1.02B3,2013-12-03 05:56:00,